Year,Month,Day,Hour,Minute,Value (Times are PST for temperature in C)
2022,05,02,00,00,4.40
2022,05,02,00,01,4.30
2022,05,02,00,02,4.30
2022,05,02,00,03,4.30
2022,05,02,00,04,4.30
2022,05,02,00,05,4.30
2022,05,02,00,06,4.30
2022,05,02,00,07,4.30
2022,05,02,00,08,4.30
2022,05,02,00,09,4.30
2022,05,02,00,10,4.20
2022,05,02,00,11,4.20
2022,05,02,00,12,4.20
2022,05,02,00,13,4.20
2022,05,02,00,14,4.20
2022,05,02,00,15,4.20
2022,05,02,00,16,4.20
2022,05,02,00,17,4.20
2022,05,02,00,18,4.20
2022,05,02,00,19,4.20
2022,05,02,00,20,4.20
2022,05,02,00,21,4.20
2022,05,02,00,22,4.20
2022,05,02,00,23,4.20
2022,05,02,00,24,4.20
2022,05,02,00,25,4.20
2022,05,02,00,26,4.20
2022,05,02,00,27,4.20
2022,05,02,00,28,4.20
2022,05,02,00,29,4.10
2022,05,02,00,30,4.10
2022,05,02,00,31,4.10
2022,05,02,00,32,4.10
2022,05,02,00,33,4.10
2022,05,02,00,34,4.10
2022,05,02,00,35,4.10
2022,05,02,00,36,4.10
2022,05,02,00,37,4.00
2022,05,02,00,38,4.00
2022,05,02,00,39,4.00
2022,05,02,00,40,4.00
2022,05,02,00,41,3.90
2022,05,02,00,42,3.90
2022,05,02,00,43,3.90
2022,05,02,00,44,3.90
2022,05,02,00,45,3.80
2022,05,02,00,46,3.80
2022,05,02,00,47,3.80
2022,05,02,00,48,3.80
2022,05,02,00,49,3.80
2022,05,02,00,50,3.80
2022,05,02,00,51,3.70
2022,05,02,00,52,3.70
2022,05,02,00,53,3.70
2022,05,02,00,54,3.70
2022,05,02,00,55,3.60
2022,05,02,00,56,3.60
2022,05,02,00,57,3.60
2022,05,02,00,58,3.60
2022,05,02,00,59,3.60
2022,05,02,01,00,3.50
2022,05,02,01,01,3.50
2022,05,02,01,02,3.40
2022,05,02,01,03,3.40
2022,05,02,01,04,3.40
2022,05,02,01,05,3.40
2022,05,02,01,06,3.40
2022,05,02,01,07,3.30
2022,05,02,01,08,3.30
2022,05,02,01,09,3.30
2022,05,02,01,10,3.30
2022,05,02,01,11,3.30
2022,05,02,01,12,3.20
2022,05,02,01,13,3.20
2022,05,02,01,14,3.20
2022,05,02,01,15,3.20
2022,05,02,01,16,3.20
2022,05,02,01,17,3.10
2022,05,02,01,18,3.10
2022,05,02,01,19,3.10
2022,05,02,01,20,3.10
2022,05,02,01,21,3.10
2022,05,02,01,22,3.00
2022,05,02,01,23,3.00
2022,05,02,01,24,3.00
2022,05,02,01,25,3.00
2022,05,02,01,26,3.00
2022,05,02,01,27,3.00
2022,05,02,01,28,2.90
2022,05,02,01,29,2.90
2022,05,02,01,30,2.90
2022,05,02,01,31,2.90
2022,05,02,01,32,2.90
2022,05,02,01,33,2.90
2022,05,02,01,34,2.90
2022,05,02,01,35,2.90
2022,05,02,01,36,2.90
2022,05,02,01,37,2.90
2022,05,02,01,38,3.00
2022,05,02,01,39,3.00
2022,05,02,01,40,3.00
2022,05,02,01,41,3.00
2022,05,02,01,42,3.00
2022,05,02,01,43,3.00
2022,05,02,01,44,3.00
2022,05,02,01,45,3.00
2022,05,02,01,46,3.10
2022,05,02,01,47,3.10
2022,05,02,01,48,3.10
2022,05,02,01,49,3.10
2022,05,02,01,50,3.10
2022,05,02,01,51,3.30
2022,05,02,01,52,3.50
2022,05,02,01,53,3.70
2022,05,02,01,54,3.90
2022,05,02,01,55,3.90
2022,05,02,01,56,4.00
2022,05,02,01,57,4.00
2022,05,02,01,58,4.00
2022,05,02,01,59,3.90
2022,05,02,02,00,3.90
2022,05,02,02,01,3.90
2022,05,02,02,02,3.80
2022,05,02,02,03,3.80
2022,05,02,02,04,3.70
2022,05,02,02,05,3.70
2022,05,02,02,06,3.60
2022,05,02,02,07,3.60
2022,05,02,02,08,3.50
2022,05,02,02,09,3.50
2022,05,02,02,10,3.40
2022,05,02,02,11,3.40
2022,05,02,02,12,3.40
2022,05,02,02,13,3.30
2022,05,02,02,14,3.30
2022,05,02,02,15,3.30
2022,05,02,02,16,3.20
2022,05,02,02,17,3.20
2022,05,02,02,18,3.20
2022,05,02,02,19,3.20
2022,05,02,02,20,3.10
2022,05,02,02,21,3.10
2022,05,02,02,22,3.10
2022,05,02,02,23,3.10
2022,05,02,02,24,3.10
2022,05,02,02,25,3.10
2022,05,02,02,26,3.10
2022,05,02,02,27,3.10
2022,05,02,02,28,3.10
2022,05,02,02,29,3.10
2022,05,02,02,30,3.20
2022,05,02,02,31,3.20
2022,05,02,02,32,3.20
2022,05,02,02,33,3.20
2022,05,02,02,34,3.30
2022,05,02,02,35,3.40
2022,05,02,02,36,3.40
2022,05,02,02,37,3.40
2022,05,02,02,38,3.40
2022,05,02,02,39,3.30
2022,05,02,02,40,3.30
2022,05,02,02,41,3.30
2022,05,02,02,42,3.20
2022,05,02,02,43,3.20
2022,05,02,02,44,3.20
2022,05,02,02,45,3.20
2022,05,02,02,46,3.20
2022,05,02,02,47,3.10
2022,05,02,02,48,3.10
2022,05,02,02,49,3.10
2022,05,02,02,50,3.00
2022,05,02,02,51,3.00
2022,05,02,02,52,3.00
2022,05,02,02,53,2.90
2022,05,02,02,54,2.90
2022,05,02,02,55,2.90
2022,05,02,02,56,2.90
2022,05,02,02,57,2.80
2022,05,02,02,58,2.80
2022,05,02,02,59,2.80
2022,05,02,03,00,2.80
2022,05,02,03,01,2.80
2022,05,02,03,02,2.70
2022,05,02,03,03,2.70
2022,05,02,03,04,2.70
2022,05,02,03,05,2.70
2022,05,02,03,06,2.60
2022,05,02,03,07,2.60
2022,05,02,03,08,2.60
2022,05,02,03,09,2.60
2022,05,02,03,10,2.50
2022,05,02,03,11,2.50
2022,05,02,03,12,2.50
2022,05,02,03,13,2.50
2022,05,02,03,14,2.40
2022,05,02,03,15,2.40
2022,05,02,03,16,2.40
2022,05,02,03,17,2.40
2022,05,02,03,18,2.40
2022,05,02,03,19,2.40
2022,05,02,03,20,2.40
2022,05,02,03,21,2.40
2022,05,02,03,22,2.30
2022,05,02,03,23,2.30
2022,05,02,03,24,2.30
2022,05,02,03,25,2.30
2022,05,02,03,26,2.30
2022,05,02,03,27,2.30
2022,05,02,03,28,2.30
2022,05,02,03,29,2.20
2022,05,02,03,30,2.20
2022,05,02,03,31,2.20
2022,05,02,03,32,2.20
2022,05,02,03,33,2.20
2022,05,02,03,34,2.20
2022,05,02,03,35,2.20
2022,05,02,03,36,2.10
2022,05,02,03,37,2.10
2022,05,02,03,38,2.10
2022,05,02,03,39,2.10
2022,05,02,03,40,2.10
2022,05,02,03,41,2.10
2022,05,02,03,42,2.10
2022,05,02,03,43,2.00
2022,05,02,03,44,2.00
2022,05,02,03,45,2.00
2022,05,02,03,46,1.90
2022,05,02,03,47,1.90
2022,05,02,03,48,1.90
2022,05,02,03,49,1.90
2022,05,02,03,50,1.90
2022,05,02,03,51,1.90
2022,05,02,03,52,1.90
2022,05,02,03,53,1.90
2022,05,02,03,54,1.80
2022,05,02,03,55,1.80
2022,05,02,03,56,1.80
2022,05,02,03,57,1.80
2022,05,02,03,58,1.80
2022,05,02,03,59,1.80
2022,05,02,04,00,1.80
2022,05,02,04,01,1.80
2022,05,02,04,02,1.80
2022,05,02,04,03,1.80
2022,05,02,04,04,1.80
2022,05,02,04,05,1.80
2022,05,02,04,06,1.80
2022,05,02,04,07,1.80
2022,05,02,04,08,1.80
2022,05,02,04,09,1.80
2022,05,02,04,10,1.80
2022,05,02,04,11,1.80
2022,05,02,04,12,1.80
2022,05,02,04,13,1.80
2022,05,02,04,14,1.80
2022,05,02,04,15,1.80
2022,05,02,04,16,1.90
2022,05,02,04,17,1.90
2022,05,02,04,18,1.90
2022,05,02,04,19,1.90
2022,05,02,04,20,1.90
2022,05,02,04,21,2.00
2022,05,02,04,22,2.00
2022,05,02,04,23,2.00
2022,05,02,04,24,2.00
2022,05,02,04,25,2.00
2022,05,02,04,26,2.00
2022,05,02,04,27,2.00
2022,05,02,04,28,2.10
2022,05,02,04,29,2.10
2022,05,02,04,30,2.10
2022,05,02,04,31,2.10
2022,05,02,04,32,2.20
2022,05,02,04,33,2.20
2022,05,02,04,34,2.20
2022,05,02,04,35,2.20
2022,05,02,04,36,2.20
2022,05,02,04,37,2.20
2022,05,02,04,38,2.30
2022,05,02,04,39,2.30
2022,05,02,04,40,2.30
2022,05,02,04,41,2.30
2022,05,02,04,42,2.30
2022,05,02,04,43,2.30
2022,05,02,04,44,2.30
2022,05,02,04,45,2.20
2022,05,02,04,46,2.20
2022,05,02,04,47,2.20
2022,05,02,04,48,2.20
2022,05,02,04,49,2.20
2022,05,02,04,50,2.20
2022,05,02,04,51,2.10
2022,05,02,04,52,2.10
2022,05,02,04,53,2.10
2022,05,02,04,54,2.10
2022,05,02,04,55,2.10
2022,05,02,04,56,2.10
2022,05,02,04,57,2.10
2022,05,02,04,58,2.10
2022,05,02,04,59,2.00
2022,05,02,05,00,2.00
2022,05,02,05,01,2.00
2022,05,02,05,02,1.90
2022,05,02,05,03,1.90
2022,05,02,05,04,1.90
2022,05,02,05,05,1.90
2022,05,02,05,06,1.90
2022,05,02,05,07,1.90
2022,05,02,05,08,1.90
2022,05,02,05,09,1.90
2022,05,02,05,10,1.90
2022,05,02,05,11,1.90
2022,05,02,05,12,1.90
2022,05,02,05,13,1.90
2022,05,02,05,14,1.90
2022,05,02,05,15,1.90
2022,05,02,05,16,1.90
2022,05,02,05,17,1.90
2022,05,02,05,18,1.90
2022,05,02,05,19,1.90
2022,05,02,05,20,1.90
2022,05,02,05,21,1.90
2022,05,02,05,22,1.90
2022,05,02,05,23,1.90
2022,05,02,05,24,1.90
2022,05,02,05,25,1.90
2022,05,02,05,26,1.80
2022,05,02,05,27,1.80
2022,05,02,05,28,1.80
2022,05,02,05,29,1.80
2022,05,02,05,30,1.80
2022,05,02,05,31,1.70
2022,05,02,05,32,1.70
2022,05,02,05,33,1.70
2022,05,02,05,34,1.70
2022,05,02,05,35,1.70
2022,05,02,05,36,1.70
2022,05,02,05,37,1.70
2022,05,02,05,38,1.60
2022,05,02,05,39,1.70
2022,05,02,05,40,1.70
2022,05,02,05,41,1.70
2022,05,02,05,42,1.70
2022,05,02,05,43,1.70
2022,05,02,05,44,1.70
2022,05,02,05,45,1.60
2022,05,02,05,46,1.60
2022,05,02,05,47,1.70
2022,05,02,05,48,1.70
2022,05,02,05,49,1.70
2022,05,02,05,50,1.70
2022,05,02,05,51,1.70
2022,05,02,05,52,1.70
2022,05,02,05,53,1.70
2022,05,02,05,54,1.70
2022,05,02,05,55,1.60
2022,05,02,05,56,1.60
2022,05,02,05,57,1.60
2022,05,02,05,58,1.60
2022,05,02,05,59,1.60
2022,05,02,06,00,1.60
2022,05,02,06,01,1.60
2022,05,02,06,02,1.60
2022,05,02,06,03,1.60
2022,05,02,06,04,1.60
2022,05,02,06,05,1.60
2022,05,02,06,06,1.60
2022,05,02,06,07,1.70
2022,05,02,06,08,1.70
2022,05,02,06,09,1.70
2022,05,02,06,10,1.70
2022,05,02,06,11,1.70
2022,05,02,06,12,1.70
2022,05,02,06,13,1.70
2022,05,02,06,14,1.70
2022,05,02,06,15,1.70
2022,05,02,06,16,1.80
2022,05,02,06,17,1.80
2022,05,02,06,18,1.80
2022,05,02,06,19,1.80
2022,05,02,06,20,1.80
2022,05,02,06,21,1.80
2022,05,02,06,22,1.80
2022,05,02,06,23,1.80
2022,05,02,06,24,1.90
2022,05,02,06,25,1.90
2022,05,02,06,26,1.90
2022,05,02,06,27,2.00
2022,05,02,06,28,2.00
2022,05,02,06,29,2.10
2022,05,02,06,30,2.20
2022,05,02,06,31,2.30
2022,05,02,06,32,2.30
2022,05,02,06,33,2.30
2022,05,02,06,34,2.30
2022,05,02,06,35,2.30
2022,05,02,06,36,2.30
2022,05,02,06,37,2.20
2022,05,02,06,38,2.20
2022,05,02,06,39,2.20
2022,05,02,06,40,2.20
2022,05,02,06,41,2.20
2022,05,02,06,42,2.20
2022,05,02,06,43,2.20
2022,05,02,06,44,2.20
2022,05,02,06,45,2.20
2022,05,02,06,46,2.20
2022,05,02,06,47,2.20
2022,05,02,06,48,2.20
2022,05,02,06,49,2.20
2022,05,02,06,50,2.20
2022,05,02,06,51,2.10
2022,05,02,06,52,2.10
2022,05,02,06,53,2.10
2022,05,02,06,54,2.10
2022,05,02,06,55,2.10
2022,05,02,06,56,2.10
2022,05,02,06,57,2.10
2022,05,02,06,58,2.10
2022,05,02,06,59,2.10
2022,05,02,07,00,2.10
2022,05,02,07,01,2.10
2022,05,02,07,02,2.10
2022,05,02,07,03,2.10
2022,05,02,07,04,2.10
2022,05,02,07,05,2.10
2022,05,02,07,06,2.10
2022,05,02,07,07,2.10
2022,05,02,07,08,2.10
2022,05,02,07,09,2.10
2022,05,02,07,10,2.10
2022,05,02,07,11,2.10
2022,05,02,07,12,2.10
2022,05,02,07,13,2.10
2022,05,02,07,14,2.10
2022,05,02,07,15,2.10
2022,05,02,07,16,2.10
2022,05,02,07,17,2.10
2022,05,02,07,18,2.10
2022,05,02,07,19,2.10
2022,05,02,07,20,2.10
2022,05,02,07,21,2.10
2022,05,02,07,22,2.10
2022,05,02,07,23,2.10
2022,05,02,07,24,2.10
2022,05,02,07,25,2.10
2022,05,02,07,26,2.10
2022,05,02,07,27,2.10
2022,05,02,07,28,2.10
2022,05,02,07,29,2.10
2022,05,02,07,30,2.10
2022,05,02,07,31,2.10
2022,05,02,07,32,2.10
2022,05,02,07,33,2.10
2022,05,02,07,34,2.10
2022,05,02,07,35,2.10
2022,05,02,07,36,2.10
2022,05,02,07,37,2.10
2022,05,02,07,38,2.10
2022,05,02,07,39,2.10
2022,05,02,07,40,2.10
2022,05,02,07,41,2.10
2022,05,02,07,42,2.10
2022,05,02,07,43,2.10
2022,05,02,07,44,2.10
2022,05,02,07,45,2.10
2022,05,02,07,46,2.10
2022,05,02,07,47,2.20
2022,05,02,07,48,2.20
2022,05,02,07,49,2.20
2022,05,02,07,50,2.20
2022,05,02,07,51,2.20
2022,05,02,07,52,2.30
2022,05,02,07,53,2.30
2022,05,02,07,54,2.30
2022,05,02,07,55,2.30
2022,05,02,07,56,2.30
2022,05,02,07,57,2.30
2022,05,02,07,58,2.30
2022,05,02,07,59,2.30
2022,05,02,08,00,2.30
2022,05,02,08,01,2.30
2022,05,02,08,02,2.40
2022,05,02,08,03,2.40
2022,05,02,08,04,2.40
2022,05,02,08,05,2.40
2022,05,02,08,06,2.40
2022,05,02,08,07,2.50
2022,05,02,08,08,2.50
2022,05,02,08,09,2.60
2022,05,02,08,10,2.60
2022,05,02,08,11,2.60
2022,05,02,08,12,2.60
2022,05,02,08,13,2.70
2022,05,02,08,14,2.70
2022,05,02,08,15,2.70
2022,05,02,08,16,2.70
2022,05,02,08,17,2.80
2022,05,02,08,18,2.80
2022,05,02,08,19,2.80
2022,05,02,08,20,2.90
2022,05,02,08,21,2.90
2022,05,02,08,22,2.90
2022,05,02,08,23,3.00
2022,05,02,08,24,3.00
2022,05,02,08,25,3.10
2022,05,02,08,26,3.10
2022,05,02,08,27,3.20
2022,05,02,08,28,3.20
2022,05,02,08,29,3.20
2022,05,02,08,30,3.30
2022,05,02,08,31,3.30
2022,05,02,08,32,3.30
2022,05,02,08,33,3.30
2022,05,02,08,34,3.40
2022,05,02,08,35,3.40
2022,05,02,08,36,3.50
2022,05,02,08,37,3.50
2022,05,02,08,38,3.60
2022,05,02,08,39,3.70
2022,05,02,08,40,3.80
2022,05,02,08,41,3.90
2022,05,02,08,42,4.00
2022,05,02,08,43,4.00
2022,05,02,08,44,4.10
2022,05,02,08,45,4.20
2022,05,02,08,46,4.20
2022,05,02,08,47,4.30
2022,05,02,08,48,4.30
2022,05,02,08,49,4.30
2022,05,02,08,50,4.40
2022,05,02,08,51,4.40
2022,05,02,08,52,4.40
2022,05,02,08,53,4.40
2022,05,02,08,54,4.40
2022,05,02,08,55,4.40
2022,05,02,08,56,4.40
2022,05,02,08,57,4.50
2022,05,02,08,58,4.50
2022,05,02,08,59,4.50
2022,05,02,09,00,4.60
2022,05,02,09,01,4.60
2022,05,02,09,02,4.60
2022,05,02,09,03,4.60
2022,05,02,09,04,4.60
2022,05,02,09,05,4.70
2022,05,02,09,06,4.70
2022,05,02,09,07,4.80
2022,05,02,09,08,4.80
2022,05,02,09,09,4.90
2022,05,02,09,10,5.00
2022,05,02,09,11,5.10
2022,05,02,09,12,5.20
2022,05,02,09,13,5.20
2022,05,02,09,14,5.30
2022,05,02,09,15,5.40
2022,05,02,09,16,5.40
2022,05,02,09,17,5.50
2022,05,02,09,18,5.50
2022,05,02,09,19,5.60
2022,05,02,09,20,5.60
2022,05,02,09,21,5.70
2022,05,02,09,22,5.70
2022,05,02,09,23,5.70
2022,05,02,09,24,5.80
2022,05,02,09,25,5.80
2022,05,02,09,26,5.80
2022,05,02,09,27,5.90
2022,05,02,09,28,6.00
2022,05,02,09,29,6.00
2022,05,02,09,30,6.10
2022,05,02,09,31,6.10
2022,05,02,09,32,6.20
2022,05,02,09,33,6.30
2022,05,02,09,34,6.30
2022,05,02,09,35,6.40
2022,05,02,09,36,6.50
2022,05,02,09,37,6.60
2022,05,02,09,38,6.70
2022,05,02,09,39,6.90
2022,05,02,09,40,7.00
2022,05,02,09,41,7.10
2022,05,02,09,42,7.30
2022,05,02,09,43,7.40
2022,05,02,09,44,7.50
2022,05,02,09,45,7.60
2022,05,02,09,46,7.80
2022,05,02,09,47,7.80
2022,05,02,09,48,7.90
2022,05,02,09,49,7.90
2022,05,02,09,50,7.80
2022,05,02,09,51,7.80
2022,05,02,09,52,7.80
2022,05,02,09,53,7.70
2022,05,02,09,54,7.60
2022,05,02,09,55,7.60
2022,05,02,09,56,7.60
2022,05,02,09,57,7.50
2022,05,02,09,58,7.50
2022,05,02,09,59,7.60
2022,05,02,10,00,7.60
2022,05,02,10,01,7.70
2022,05,02,10,02,7.70
2022,05,02,10,03,7.80
2022,05,02,10,04,7.80
2022,05,02,10,05,7.80
2022,05,02,10,06,7.90
2022,05,02,10,07,8.00
2022,05,02,10,08,8.10
2022,05,02,10,09,8.10
2022,05,02,10,10,8.10
2022,05,02,10,11,8.10
2022,05,02,10,12,8.20
2022,05,02,10,13,8.20
2022,05,02,10,14,8.30
2022,05,02,10,15,8.30
2022,05,02,10,16,8.40
2022,05,02,10,17,8.40
2022,05,02,10,18,8.50
2022,05,02,10,19,8.50
2022,05,02,10,20,8.60
2022,05,02,10,21,8.60
2022,05,02,10,22,8.70
2022,05,02,10,23,8.70
2022,05,02,10,24,8.70
2022,05,02,10,25,8.70
2022,05,02,10,26,8.80
2022,05,02,10,27,8.80
2022,05,02,10,28,8.80
2022,05,02,10,29,8.90
2022,05,02,10,30,8.90
2022,05,02,10,31,8.90
2022,05,02,10,32,9.00
2022,05,02,10,33,9.00
2022,05,02,10,34,9.00
2022,05,02,10,35,9.10
2022,05,02,10,36,9.10
2022,05,02,10,37,9.10
2022,05,02,10,38,9.20
2022,05,02,10,39,9.20
2022,05,02,10,40,9.20
2022,05,02,10,41,9.20
2022,05,02,10,42,9.20
2022,05,02,10,43,9.30
2022,05,02,10,44,9.30
2022,05,02,10,45,9.30
2022,05,02,10,46,9.30
2022,05,02,10,47,9.30
2022,05,02,10,48,9.30
2022,05,02,10,49,9.30
2022,05,02,10,50,9.30
2022,05,02,10,51,9.40
2022,05,02,10,52,9.40
2022,05,02,10,53,9.40
2022,05,02,10,54,9.40
2022,05,02,10,55,9.50
2022,05,02,10,56,9.50
2022,05,02,10,57,9.60
2022,05,02,10,58,9.60
2022,05,02,10,59,9.60
2022,05,02,11,00,9.70
2022,05,02,11,01,9.70
2022,05,02,11,02,9.70
2022,05,02,11,03,9.70
2022,05,02,11,04,9.70
2022,05,02,11,05,9.70
2022,05,02,11,06,9.70
2022,05,02,11,07,9.70
2022,05,02,11,08,9.70
2022,05,02,11,09,9.70
2022,05,02,11,10,9.70
2022,05,02,11,11,9.70
2022,05,02,11,12,9.70
2022,05,02,11,13,9.70
2022,05,02,11,14,9.80
2022,05,02,11,15,9.80
2022,05,02,11,16,9.80
2022,05,02,11,17,9.80
2022,05,02,11,18,9.80
2022,05,02,11,19,9.80
2022,05,02,11,20,9.80
2022,05,02,11,21,9.80
2022,05,02,11,22,9.80
2022,05,02,11,23,9.90
2022,05,02,11,24,9.90
2022,05,02,11,25,9.90
2022,05,02,11,26,9.90
2022,05,02,11,27,9.90
2022,05,02,11,28,9.90
2022,05,02,11,29,9.80
2022,05,02,11,30,9.80
2022,05,02,11,31,9.80
2022,05,02,11,32,9.80
2022,05,02,11,33,9.90
2022,05,02,11,34,9.90
2022,05,02,11,35,9.80
2022,05,02,11,36,9.80
2022,05,02,11,37,9.80
2022,05,02,11,38,9.90
2022,05,02,11,39,9.90
2022,05,02,11,40,9.90
2022,05,02,11,41,9.90
2022,05,02,11,42,9.90
2022,05,02,11,43,9.90
2022,05,02,11,44,9.90
2022,05,02,11,45,9.90
2022,05,02,11,46,9.90
2022,05,02,11,47,10.00
2022,05,02,11,48,10.00
2022,05,02,11,49,10.00
2022,05,02,11,50,10.10
2022,05,02,11,51,10.10
2022,05,02,11,52,10.10
2022,05,02,11,53,10.10
2022,05,02,11,54,10.10
2022,05,02,11,55,10.10
2022,05,02,11,56,10.20
2022,05,02,11,57,10.20
2022,05,02,11,58,10.20
2022,05,02,11,59,10.20
2022,05,02,12,00,10.20
2022,05,02,12,01,10.30
2022,05,02,12,02,10.30
2022,05,02,12,03,10.30
2022,05,02,12,04,10.30
2022,05,02,12,05,10.30
2022,05,02,12,06,10.30
2022,05,02,12,07,10.30
2022,05,02,12,08,10.30
2022,05,02,12,09,10.30
2022,05,02,12,10,10.30
2022,05,02,12,11,10.30
2022,05,02,12,12,10.40
2022,05,02,12,13,10.40
2022,05,02,12,14,10.40
2022,05,02,12,15,10.40
2022,05,02,12,16,10.40
2022,05,02,12,17,10.50
2022,05,02,12,18,10.50
2022,05,02,12,19,10.60
2022,05,02,12,20,10.60
2022,05,02,12,21,10.60
2022,05,02,12,22,10.70
2022,05,02,12,23,10.70
2022,05,02,12,24,10.70
2022,05,02,12,25,10.70
2022,05,02,12,26,10.70
2022,05,02,12,27,10.80
2022,05,02,12,28,10.80
2022,05,02,12,29,10.80
2022,05,02,12,30,10.80
2022,05,02,12,31,10.80
2022,05,02,12,32,10.80
2022,05,02,12,33,10.80
2022,05,02,12,34,10.70
2022,05,02,12,35,10.80
2022,05,02,12,36,10.70
2022,05,02,12,37,10.80
2022,05,02,12,38,10.80
2022,05,02,12,39,10.80
2022,05,02,12,40,10.80
2022,05,02,12,41,10.80
2022,05,02,12,42,10.80
2022,05,02,12,43,10.90
2022,05,02,12,44,10.90
2022,05,02,12,45,10.90
2022,05,02,12,46,10.90
2022,05,02,12,47,10.90
2022,05,02,12,48,10.90
2022,05,02,12,49,10.90
2022,05,02,12,50,10.90
2022,05,02,12,51,10.90
2022,05,02,12,52,10.90
2022,05,02,12,53,10.80
2022,05,02,12,54,10.80
2022,05,02,12,55,10.80
2022,05,02,12,56,10.80
2022,05,02,12,57,10.80
2022,05,02,12,58,10.80
2022,05,02,12,59,10.80
2022,05,02,13,00,10.80
2022,05,02,13,01,10.80
2022,05,02,13,02,10.80
2022,05,02,13,03,10.80
2022,05,02,13,04,10.80
2022,05,02,13,05,10.80
2022,05,02,13,06,10.80
2022,05,02,13,07,10.80
2022,05,02,13,08,10.80
2022,05,02,13,09,10.80
2022,05,02,13,10,10.80
2022,05,02,13,11,10.80
2022,05,02,13,12,10.80
2022,05,02,13,13,10.80
2022,05,02,13,14,10.80
2022,05,02,13,15,10.80
2022,05,02,13,16,10.80
2022,05,02,13,17,10.80
2022,05,02,13,18,10.80
2022,05,02,13,19,10.80
2022,05,02,13,20,10.80
2022,05,02,13,21,10.80
2022,05,02,13,22,10.80
2022,05,02,13,23,10.80
2022,05,02,13,24,10.90
2022,05,02,13,25,10.90
2022,05,02,13,26,10.90
2022,05,02,13,27,10.90
2022,05,02,13,28,10.90
2022,05,02,13,29,10.90
2022,05,02,13,30,11.00
2022,05,02,13,31,11.00
2022,05,02,13,32,11.00
2022,05,02,13,33,11.00
2022,05,02,13,34,11.00
2022,05,02,13,35,11.00
2022,05,02,13,36,11.00
2022,05,02,13,37,11.00
2022,05,02,13,38,11.00
2022,05,02,13,39,10.90
2022,05,02,13,40,10.90
2022,05,02,13,41,10.90
2022,05,02,13,42,10.90
2022,05,02,13,43,10.90
2022,05,02,13,44,10.90
2022,05,02,13,45,10.90
2022,05,02,13,46,10.90
2022,05,02,13,47,10.90
2022,05,02,13,48,10.90
2022,05,02,13,49,10.90
2022,05,02,13,50,10.80
2022,05,02,13,51,10.80
2022,05,02,13,52,10.80
2022,05,02,13,53,10.80
2022,05,02,13,54,10.80
2022,05,02,13,55,10.80
2022,05,02,13,56,10.80
2022,05,02,13,57,10.70
2022,05,02,13,58,10.70
2022,05,02,13,59,10.70
2022,05,02,14,00,10.70
2022,05,02,14,01,10.70
2022,05,02,14,02,10.70
2022,05,02,14,03,10.70
2022,05,02,14,04,10.60
2022,05,02,14,05,10.50
2022,05,02,14,06,10.30
2022,05,02,14,07,10.20
2022,05,02,14,08,10.10
2022,05,02,14,09,10.00
2022,05,02,14,10,9.90
2022,05,02,14,11,9.80
2022,05,02,14,12,9.70
2022,05,02,14,13,9.70
2022,05,02,14,14,9.60
2022,05,02,14,15,9.50
2022,05,02,14,16,9.50
2022,05,02,14,17,9.40
2022,05,02,14,18,9.40
2022,05,02,14,19,9.30
2022,05,02,14,20,9.30
2022,05,02,14,21,9.30
2022,05,02,14,22,9.30
2022,05,02,14,23,9.30
2022,05,02,14,24,9.30
2022,05,02,14,25,9.40
2022,05,02,14,26,9.40
2022,05,02,14,27,9.40
2022,05,02,14,28,9.40
2022,05,02,14,29,9.40
2022,05,02,14,30,9.40
2022,05,02,14,31,9.40
2022,05,02,14,32,9.40
2022,05,02,14,33,9.40
2022,05,02,14,34,9.50
2022,05,02,14,35,9.50
2022,05,02,14,36,9.50
2022,05,02,14,37,9.50
2022,05,02,14,38,9.50
2022,05,02,14,39,9.50
2022,05,02,14,40,9.50
2022,05,02,14,41,9.60
2022,05,02,14,42,9.60
2022,05,02,14,43,9.60
2022,05,02,14,44,9.60
2022,05,02,14,45,9.60
2022,05,02,14,46,9.60
2022,05,02,14,47,9.60
2022,05,02,14,48,9.60
2022,05,02,14,49,9.60
2022,05,02,14,50,9.60
2022,05,02,14,51,9.60
2022,05,02,14,52,9.60
2022,05,02,14,53,9.60
2022,05,02,14,54,9.60
2022,05,02,14,55,9.60
2022,05,02,14,56,9.70
2022,05,02,14,57,9.70
2022,05,02,14,58,9.70
2022,05,02,14,59,9.70
2022,05,02,15,00,9.70
2022,05,02,15,01,9.70
2022,05,02,15,02,9.70
2022,05,02,15,03,9.70
2022,05,02,15,04,9.80
2022,05,02,15,05,9.80
2022,05,02,15,06,9.80
2022,05,02,15,07,9.80
2022,05,02,15,08,9.80
2022,05,02,15,09,9.80
2022,05,02,15,10,9.90
2022,05,02,15,11,9.90
2022,05,02,15,12,9.90
2022,05,02,15,13,9.90
2022,05,02,15,14,9.90
2022,05,02,15,15,10.00
2022,05,02,15,16,10.00
2022,05,02,15,17,10.00
2022,05,02,15,18,10.10
2022,05,02,15,19,10.10
2022,05,02,15,20,10.10
2022,05,02,15,21,10.10
2022,05,02,15,22,10.10
2022,05,02,15,23,10.10
2022,05,02,15,24,10.20
2022,05,02,15,25,10.20
2022,05,02,15,26,10.20
2022,05,02,15,27,10.20
2022,05,02,15,28,10.30
2022,05,02,15,29,10.30
2022,05,02,15,30,10.30
2022,05,02,15,31,10.30
2022,05,02,15,32,10.30
2022,05,02,15,33,10.30
2022,05,02,15,34,10.40
2022,05,02,15,35,10.40
2022,05,02,15,36,10.50
2022,05,02,15,37,10.60
2022,05,02,15,38,10.70
2022,05,02,15,39,10.80
2022,05,02,15,40,10.80
2022,05,02,15,41,10.90
2022,05,02,15,42,11.00
2022,05,02,15,43,11.10
2022,05,02,15,44,11.10
2022,05,02,15,45,11.20
2022,05,02,15,46,11.20
2022,05,02,15,47,11.30
2022,05,02,15,48,11.40
2022,05,02,15,49,11.40
2022,05,02,15,50,11.50
2022,05,02,15,51,11.50
2022,05,02,15,52,11.50
2022,05,02,15,53,11.50
2022,05,02,15,54,11.50
2022,05,02,15,55,11.50
2022,05,02,15,56,11.50
2022,05,02,15,57,11.40
2022,05,02,15,58,11.40
2022,05,02,15,59,11.40
2022,05,02,16,00,11.40
2022,05,02,16,01,11.40
2022,05,02,16,02,11.40
2022,05,02,16,03,11.40
2022,05,02,16,04,11.30
2022,05,02,16,05,11.20
2022,05,02,16,06,11.20
2022,05,02,16,07,11.10
2022,05,02,16,08,11.00
2022,05,02,16,09,10.90
2022,05,02,16,10,10.90
2022,05,02,16,11,10.90
2022,05,02,16,12,10.90
2022,05,02,16,13,10.90
2022,05,02,16,14,10.80
2022,05,02,16,15,10.80
2022,05,02,16,16,10.90
2022,05,02,16,17,10.90
2022,05,02,16,18,10.90
2022,05,02,16,19,10.90
2022,05,02,16,20,10.90
2022,05,02,16,21,10.90
2022,05,02,16,22,11.00
2022,05,02,16,23,11.00
2022,05,02,16,24,11.00
2022,05,02,16,25,11.00
2022,05,02,16,26,11.00
2022,05,02,16,27,11.10
2022,05,02,16,28,11.00
2022,05,02,16,29,11.00
2022,05,02,16,30,11.00
2022,05,02,16,31,11.00
2022,05,02,16,32,11.00
2022,05,02,16,33,11.10
2022,05,02,16,34,11.10
2022,05,02,16,35,11.10
2022,05,02,16,36,11.20
2022,05,02,16,37,11.20
2022,05,02,16,38,11.30
2022,05,02,16,39,11.30
2022,05,02,16,40,11.30
2022,05,02,16,41,11.30
2022,05,02,16,42,11.30
2022,05,02,16,43,11.30
2022,05,02,16,44,11.30
2022,05,02,16,45,11.30
2022,05,02,16,46,11.30
2022,05,02,16,47,11.30
2022,05,02,16,48,11.30
2022,05,02,16,49,11.30
2022,05,02,16,50,11.40
2022,05,02,16,51,11.40
2022,05,02,16,52,11.40
2022,05,02,16,53,11.50
2022,05,02,16,54,11.50
2022,05,02,16,55,11.50
2022,05,02,16,56,11.60
2022,05,02,16,57,11.60
2022,05,02,16,58,11.60
2022,05,02,16,59,11.60
2022,05,02,17,00,11.60
2022,05,02,17,01,11.60
2022,05,02,17,02,11.70
2022,05,02,17,03,11.70
2022,05,02,17,04,11.70
2022,05,02,17,05,11.80
2022,05,02,17,06,11.80
2022,05,02,17,07,11.80
2022,05,02,17,08,11.90
2022,05,02,17,09,11.90
2022,05,02,17,10,12.00
2022,05,02,17,11,12.00
2022,05,02,17,12,12.10
2022,05,02,17,13,12.10
2022,05,02,17,14,12.10
2022,05,02,17,15,12.20
2022,05,02,17,16,12.20
2022,05,02,17,17,12.20
2022,05,02,17,18,12.30
2022,05,02,17,19,12.30
2022,05,02,17,20,12.30
2022,05,02,17,21,12.30
2022,05,02,17,22,12.30
2022,05,02,17,23,12.40
2022,05,02,17,24,12.30
2022,05,02,17,25,12.30
2022,05,02,17,26,12.40
2022,05,02,17,27,12.40
2022,05,02,17,28,12.40
2022,05,02,17,29,12.40
2022,05,02,17,30,12.40
2022,05,02,17,31,12.40
2022,05,02,17,32,12.40
2022,05,02,17,33,12.40
2022,05,02,17,34,12.40
2022,05,02,17,35,12.40
2022,05,02,17,36,12.40
2022,05,02,17,37,12.40
2022,05,02,17,38,12.40
2022,05,02,17,39,12.40
2022,05,02,17,40,12.40
2022,05,02,17,41,12.40
2022,05,02,17,42,12.40
2022,05,02,17,43,12.40
2022,05,02,17,44,12.30
2022,05,02,17,45,12.30
2022,05,02,17,46,12.30
2022,05,02,17,47,12.30
2022,05,02,17,48,12.30
2022,05,02,17,49,12.30
2022,05,02,17,50,12.30
2022,05,02,17,51,12.20
2022,05,02,17,52,12.20
2022,05,02,17,53,12.20